Location: Zagreb
(45.8000°N, 16.0000°E)
Time: 02:16:20
(UTC+02:00)

Vanguard 1 Rocket - Visible Passes

Search period start: 14 August 2020 00:00
Search period end: 24 August 2020 00:00
Orbit: 655 x 4222 km, 34.3° (Epoch: 12 August)

Date Brightness Start Highest point End Pass type
(mag) Time Alt. Az. Time Alt. Az. Time Alt. Az.
14 Aug 10.6 03:26:33 10° S 03:30:02 11° SSE 03:33:03 10° SE visible
15 Aug 10.0 04:36:04 10° SSW 04:44:45 21° SSE 04:50:35 10° ESE visible
16 Aug 10.4 03:27:52 14° S 03:33:00 17° SSE 03:39:03 10° ESE visible
17 Aug 10.8 02:20:31 12° SSE 02:20:56 12° SSE 02:25:34 10° SE visible
17 Aug 9.8 04:37:48 11° SSW 04:47:46 27° SSE 04:54:22 10° ESE visible
18 Aug 10.2 03:30:25 18° S 03:35:58 23° SSE 03:43:23 10° ESE visible
19 Aug 10.6 02:23:01 18° SSE 02:23:48 18° SSE 02:31:24 10° ESE visible
19 Aug 9.6 04:40:16 14° SW 04:50:43 33° SSE 04:57:54 10° ESE visible
20 Aug 11.0 01:15:34 11° SE 01:15:34 11° SE 01:17:01 10° SE visible
20 Aug 10.0 03:32:50 23° SSW 03:38:52 29° SSE 03:47:11 10° ESE visible
21 Aug 10.4 02:25:21 24° SSE 02:26:37 24° SSE 02:35:47 10° ESE visible
21 Aug 9.5 04:42:36 15° SW 04:53:39 38° S 05:01:16 10° ESE visible
22 Aug 10.8 01:17:50 17° SE 01:17:50 17° SE 01:23:08 10° ESE visible
22 Aug 9.9 03:35:06 26° SSW 03:41:44 35° SSE 03:50:42 10° ESE visible
23 Aug 10.3 02:27:32 30° SSE 02:29:22 30° SSE 02:39:37 10° ESE visible
23 Aug 9.4 04:44:47 16° SW 04:56:32 43° S 05:04:31 10° ESE visible
